This is the latest recevied weather packets stored in our database for station/object N1UNH. If no packets are shown the sender has not sent any weather packets the latest 10 day(s).
| Time | Temp. | Humidity | Pressure | Rain* | Wind** | Luminosity | Snow |
|---|---|---|---|---|---|---|---|
| 1778012069 | 28.33° C | 30% | 1008.9 hPa | 0 mm | - | 429 W/m² | - |
| 1778011767 | 28.89° C | 30% | 1009 hPa | 0 mm | - | 424 W/m² | - |
| 1778011464 | 28.89° C | 29% | 1009.2 hPa | 0 mm | - | 499 W/m² | - |
| 1778011159 | 28.89° C | 29% | 1009.4 hPa | 0 mm | - | 442 W/m² | - |
| 1778010857 | 28.89° C | 29% | 1009.4 hPa | 0 mm | - | 473 W/m² | - |
| 1778010554 | 28.89° C | 29% | 1009.6 hPa | 0 mm | - | 469 W/m² | - |
| 1778010252 | 29.44° C | 28% | 1009.5 hPa | 0 mm | - | 564 W/m² | - |
| 1778009951 | 28.89° C | 28% | 1009.7 hPa | 0 mm | - | 630 W/m² | - |
| 1778009649 | 29.44° C | 27% | 1009.3 hPa | 0 mm | - | 701 W/m² | - |
| 1778009347 | 29.44° C | 27% | 1009.4 hPa | 0 mm | - | 664 W/m² | - |
| 1778009045 | 29.44° C | 27% | 1009.4 hPa | 0 mm | - | 727 W/m² | - |
| 1778008742 | 30° C | 27% | 1009.3 hPa | 0 mm | - | 737 W/m² | - |
| 1778008441 | 30° C | 29% | 1009.5 hPa | 0 mm | - | 708 W/m² | - |
| 1778008137 | 30° C | 28% | 1009.7 hPa | 0 mm | - | 735 W/m² | - |
| 1778007833 | 29.44° C | 27% | 1009.5 hPa | 0 mm | - | 779 W/m² | - |
| 1778007528 | 29.44° C | 27% | 1009.7 hPa | 0 mm | - | 804 W/m² | - |
| 1778007225 | 29.44° C | 29% | 1009.7 hPa | 0 mm | - | 804 W/m² | - |
| 1778006921 | 29.44° C | 27% | 1010.4 hPa | 0 mm | - | 816 W/m² | - |
| 1778006618 | 29.44° C | 28% | 1010.1 hPa | 0 mm | - | 881 W/m² | - |
| 1778006315 | 29.44° C | 28% | 1010.1 hPa | 0 mm | - | 833 W/m² | - |
| 1778006012 | 28.89° C | 29% | 1010.3 hPa | 0 mm | - | 888 W/m² | - |
| 1778005709 | 27.78° C | 29% | 1010.6 hPa | 0 mm | - | 995 W/m² | - |
| 1778005406 | 27.22° C | 31% | 1010.6 hPa | 0 mm | - | 999 W/m² | - |
| 1778005102 | 27.22° C | 30% | 1010.6 hPa | 0 mm | - | 213 W/m² | - |
| 1778004800 | 27.22° C | 30% | 1010.5 hPa | 0 mm | - | 673 W/m² | - |
* Rain latest hour (hover to see other rain measurements)
** Current wind speed in m/s (hover to see current wind gust speed)